Location: Glen Waverley
(37.8830°S, 145.1670°E)
Time: 10:49:37
(UTC+10:00)

ISS - Pass Details

Date: 17 August 2022
Orbit: 413 x 417 km, 51.6° (Epoch: 30 September)

Event Time Altitude Azimuth Distance (km) Brightness Sun altitude
Rises 19:29:11 0° 304° (NW) 2,361 1.0 -21.0°
Reaches altitude 10° 19:31:17 10° 301° (WNW) 1,506 -0.1 -21.5°
Enters shadow 19:34:24 62° 246° (WSW) 484 -3.3 -22.1°
